DW4121 Weather Reports


time (UTC)temp
C
wind
direction
speed
KPH
gust
KPH
rain 1hr
cm
rain 24hr
cm
rain mn
cm
humidity
%
barometer
mb
20260507074604 12 194 3.2 8.0 0.00 0.00 0.00 79 1015.4
20260507073104 11 208 0.0 4.8 0.00 0.00 0.00 82 1015.4
20260507071104 10 178 1.6 9.7 0.00 0.00 0.00 84 1015.4
20260507070103 10 211 3.2 8.0 0.00 0.00 0.00 84 1015.4
20260507065104 10 215 1.6 4.8 0.00 0.00 0.00 85 1015.3
20260507064105 10 167 3.2 4.8 0.00 0.00 0.00 85 1015.3
20260507063603 10 167 1.6 8.0 0.00 0.00 0.00 86 1015.3
20260507062104 10 116 3.2 4.8 0.00 0.00 0.00 87 1015.2
20260507061605 9 114 0.0 4.8 0.00 0.00 0.00 87 1015.2
20260507060606 9 114 0.0 3.2 0.00 0.00 0.00 87 1015.1
20260507060105 8 114 1.6 4.8 0.00 0.00 0.00 87 1015.0
20260507054605 8 114 0.0 0.0 0.00 0.00 0.00 88 1015.0
20260507051605 7 114 0.0 0.0 0.00 0.00 0.00 87 1014.8
20260507051108 7 114 0.0 0.0 0.00 0.00 0.00 87 1014.8
20260507050105 7 114 0.0 1.6 0.00 0.00 0.00 87 1014.7
20260507044607 7 114 0.0 1.6 0.00 0.00 0.00 87 1014.6
20260507043105 7 114 0.0 3.2 0.00 0.00 0.00 87 1014.6
20260507042604 7 114 0.0 4.8 0.00 0.00 0.00 87 1014.6
20260507042104 7 114 1.6 3.2 0.00 0.00 0.00 87 1014.7
20260507041105 7 114 1.6 3.2 0.00 0.00 0.00 87 1014.7
20260507040605 7 114 0.0 0.0 0.00 0.00 0.00 87 1014.6
20260507035607 7 114 0.0 1.6 0.00 0.00 0.00 87 1014.6
20260507035105 7 114 0.0 3.2 0.00 0.00 0.00 86 1014.6
20260507034105 7 114 1.6 4.8 0.00 0.00 0.00 86 1014.6
20260507033605 7 114 1.6 4.8 0.00 0.00 0.00 86 1014.5
20260507032105 7 114 1.6 4.8 0.00 0.00 0.00 86 1014.6
20260507031105 7 114 3.2 4.8 0.00 0.00 0.00 86 1014.6
20260507030605 7 114 3.2 4.8 0.00 0.00 0.00 86 1014.5
20260507025604 7 114 3.2 4.8 0.00 0.00 0.00 85 1014.6
20260507024605 7 114 3.2 4.8 0.00 0.00 0.00 85 1014.5
20260507021605 8 114 0.0 3.2 0.00 0.00 0.00 84 1014.4
20260507021105 8 114 0.0 1.6 0.00 0.00 0.00 84 1014.4
20260507015604 8 114 1.6 4.8 0.00 0.00 0.00 84 1014.3
20260507014604 8 121 3.2 4.8 0.00 0.00 0.00 84 1014.3
20260507014105 8 106 1.6 4.8 0.00 0.00 0.00 84 1014.3
20260507013105 8 110 1.6 4.8 0.00 0.00 0.00 84 1014.3
20260507012104 8 60 4.8 8.0 0.00 0.00 0.00 84 1014.3
20260507010605 8 83 3.2 8.0 0.00 0.00 0.00 84 1014.3
20260507010104 8 112 3.2 9.7 0.00 0.00 0.00 83 1014.3
20260507005604 8 95 4.8 8.0 0.00 0.00 0.00 83 1014.3
20260507005104 8 86 3.2 8.0 0.00 0.00 0.00 83 1014.3
20260507004606 9 65 4.8 8.0 0.00 0.00 0.00 83 1014.3
20260507004105 9 43 4.8 11.3 0.00 0.00 0.00 83 1014.3
20260507003105 9 58 4.8 12.9 0.00 0.00 0.00 83 1014.3
20260507002604 9 55 3.2 8.0 0.00 0.00 0.00 83 1014.4
20260507001104 9 56 3.2 11.3 0.00 0.00 0.00 82 1014.4
20260507000105 9 55 3.2 9.7 0.00 0.00 0.00 82 1014.5
20260506234605 9 75 3.2 8.0 0.00 0.00 0.00 81 1014.3
20260506234104 9 77 3.2 9.7 0.00 0.00 0.00 80 1014.2
20260506233105 9 69 3.2 8.0 0.00 0.00 0.00 80 1014.2
20260506232105 10 71 1.6 4.8 0.00 0.00 0.00 79 1014.1
20260506231106 10 103 1.6 8.0 0.00 0.00 0.00 78 1014.1
20260506230604 10 109 3.2 4.8 0.00 0.00 0.00 78 1014.1
20260506225104 10 71 3.2 9.7 0.00 0.00 0.00 77 1014.1
20260506224604 10 55 3.2 9.7 0.00 0.00 0.00 77 1014.1
20260506224104 10 107 4.8 9.7 0.00 0.00 0.00 76 1014.1
20260506223606 10 86 4.8 9.7 0.00 0.00 0.00 76 1014.1
20260506222605 10 121 4.8 9.7 0.00 0.00 0.00 75 1014.1
20260506222105 10 57 6.4 12.9 0.00 0.00 0.00 74 1014.0
20260506221104 10 55 4.8 9.7 0.00 0.00 0.00 74 1013.9
20260506220604 10 119 4.8 12.9 0.00 0.00 0.00 74 1014.0
20260506215605 10 66 3.2 8.0 0.00 0.00 0.00 73 1013.9
20260506213605 11 55 4.8 9.7 0.00 0.00 0.00 72 1013.9
20260506213104 11 101 3.2 9.7 0.00 0.00 0.00 72 1013.9
20260506211105 11 117 3.2 9.7 0.00 0.00 0.00 72 1013.8
20260506210604 11 112 6.4 11.3 0.00 0.00 0.00 72 1013.8
20260506203604 11 97 6.4 14.5 0.00 0.00 0.00 70 1013.6
20260506203104 11 53 6.4 14.5 0.00 0.00 0.00 69 1013.6
20260506202604 11 62 6.4 16.1 0.00 0.00 0.00 69 1013.5
20260506201605 11 73 6.4 11.3 0.00 0.00 0.00 67 1013.5
20260506201105 12 117 8.0 12.9 0.00 0.00 0.00 67 1013.4
20260506200605 12 52 9.7 19.3 0.00 0.00 0.00 66 1013.4
20260506200105 12 106 4.8 14.5 0.00 0.00 0.00 66 1013.3
20260506195605 12 72 4.8 11.3 0.00 0.00 0.00 65 1013.3
20260506193605 12 109 9.7 19.3 0.00 0.00 0.00 64 1012.9
20260506192604 12 122 4.8 12.9 0.00 0.00 0.00 63 1012.9
20260506192104 12 126 8.0 19.3 0.00 0.00 0.00 63 1012.9
20260506191105 12 117 8.0 12.9 0.00 0.00 0.00 62 1012.8
20260506190606 12 119 8.0 16.1 0.00 0.00 0.00 62 1012.8
20260506190104 12 98 4.8 11.3 0.00 0.00 0.00 61 1012.8
20260506184105 13 60 8.0 19.3 0.00 0.00 0.00 60 1012.6
20260506181104 13 69 9.7 16.1 0.00 0.00 0.00 55 1012.3
20260506180606 13 58 8.0 14.5 0.00 0.00 0.00 55 1012.2
20260506175604 14 60 9.7 19.3 0.00 0.00 0.00 54 1012.1
20260506175104 14 98 8.0 20.9 0.00 0.00 0.00 53 1012.1
20260506170104 14 113 8.0 16.1 0.00 0.00 0.00 56 1011.9
20260506165104 14 63 11.3 19.3 0.00 0.00 0.00 55 1011.8
20260506164604 14 72 4.8 19.3 0.00 0.00 0.00 56 1011.9
20260506164104 14 113 8.0 19.3 0.00 0.00 0.00 56 1011.9
20260506163104 14 123 8.0 19.3 0.00 0.00 0.00 57 1011.9
20260506162604 14 65 6.4 14.5 0.00 0.00 0.00 57 1011.9
20260506162104 14 65 6.4 14.5 0.00 0.00 0.00 57 1011.9
20260506161604 14 36 9.7 16.1 0.00 0.00 0.00 57 1011.9
20260506161104 14 40 9.7 19.3 0.00 0.00 0.00 57 1011.9
20260506160605 14 119 4.8 16.1 0.00 0.00 0.00 57 1011.9
20260506160104 14 59 8.0 14.5 0.00 0.00 0.00 57 1011.9
20260506155104 13 68 8.0 16.1 0.00 0.00 0.00 57 1012.0
20260506154605 13 103 8.0 19.3 0.00 0.00 0.00 57 1012.0
20260506153604 13 127 8.0 12.9 0.00 0.00 0.00 58 1012.0
20260506153104 13 86 8.0 12.9 0.00 0.00 0.00 58 1012.1
20260506151604 13 76 4.8 12.9 0.00 0.00 0.00 59 1012.1
20260506151103 13 76 8.0 16.1 0.00 0.00 0.00 59 1012.1
20260506145104 13 98 6.4 16.1 0.00 0.00 0.00 60 1012.1
20260506144604 13 55 8.0 22.5 0.00 0.00 0.00 60 1012.0
20260506144104 13 77 8.0 16.1 0.00 0.00 0.00 60 1012.1
20260506143604 13 62 9.7 19.3 0.00 0.00 0.00 59 1012.1
20260506142106 15 95 11.3 24.1 0.00 0.00 0.00 57 1012.0
20260506141603 15 54 8.0 16.1 0.00 0.00 0.00 56 1012.0
20260506141104 15 38 9.7 20.9 0.00 0.00 0.00 55 1012.0
20260506140604 15 122 9.7 22.5 0.00 0.00 0.00 54 1012.0
20260506140104 16 99 4.8 19.3 0.00 0.00 0.00 55 1011.9
20260506135104 15 75 6.4 19.3 0.00 0.00 0.00 56 1012.0
20260506134606 15 51 8.0 19.3 0.00 0.00 0.00 56 1012.1
20260506134103 15 127 12.9 22.5 0.00 0.00 0.00 54 1012.1
20260506133604 15 66 8.0 20.9 0.00 0.00 0.00 54 1012.1
20260506133104 15 83 12.9 24.1 0.00 0.00 0.00 55 1012.1
20260506132104 15 75 11.3 22.5 0.00 0.00 0.00 58 1012.2
20260506130604 13 69 9.7 20.9 0.00 0.00 0.00 59 1012.2
20260506130104 13 109 11.3 25.7 0.00 0.00 0.00 59 1012.2
20260506125104 15 74 11.3 27.4 0.00 0.00 0.00 56 1012.2
20260506124604 15 84 8.0 20.9 0.00 0.00 0.00 57 1012.1
20260506124104 15 90 8.0 19.3 0.00 0.00 0.00 56 1012.0
20260506123604 15 99 9.7 22.5 0.00 0.00 0.00 56 1012.0
20260506123104 15 56 9.7 19.3 0.00 0.00 0.00 55 1012.1
20260506122604 15 71 9.7 24.1 0.00 0.00 0.00 54 1012.1
20260506122104 15 107 8.0 19.3 0.00 0.00 0.00 56 1012.1
20260506121604 15 65 11.3 20.9 0.00 0.00 0.00 56 1012.2
20260506114604 15 60 12.9 24.1 0.00 0.00 0.00 56 1012.1
20260506114104 15 86 11.3 27.4 0.00 0.00 0.00 56 1012.1
20260506113604 15 107 11.3 24.1 0.00 0.00 0.00 56 1012.1
20260506112603 13 56 14.5 27.4 0.00 0.00 0.00 58 1012.2
20260506112104 14 59 11.3 24.1 0.00 0.00 0.00 57 1012.2
20260506111104 15 52 14.5 25.7 0.00 0.00 0.00 54 1012.1
20260506104104 13 50 8.0 27.4 0.00 0.00 0.00 56 1012.3
20260506103604 13 37 9.7 24.1 0.00 0.00 0.00 57 1012.3
20260506102104 13 82 9.7 24.1 0.00 0.00 0.00 59 1012.4
20260506095603 14 70 9.7 22.5 0.00 0.00 0.00 55 1012.3
20260506095104 13 105 12.9 29.0 0.00 0.00 0.00 56 1012.3
20260506094104 13 104 11.3 20.9 0.00 0.00 0.00 56 1012.3
20260506093604 13 82 11.3 24.1 0.00 0.00 0.00 57 1012.4
20260506092604 13 75 9.7 22.5 0.00 0.00 0.00 57 1012.3
20260506092104 13 46 14.5 22.5 0.00 0.00 0.00 57 1012.3
20260506091604 12 69 9.7 19.3 0.00 0.00 0.00 58 1012.2
20260506090604 13 70 14.5 24.1 0.00 0.00 0.00 57 1012.2
20260506090104 13 50 4.8 19.3 0.00 0.00 0.00 60 1012.2
20260506085603 13 48 8.0 19.3 0.00 0.00 0.00 62 1012.2
20260506085104 12 102 9.7 19.3 0.00 0.00 0.00 63 1012.2
20260506084603 12 58 11.3 19.3 0.00 0.00 0.00 65 1012.2
20260506083604 11 17 16.1 27.4 0.00 0.00 0.00 65 1012.2
20260506083104 11 31 14.5 22.5 0.00 0.00 0.00 67 1012.1
20260506082104 11 28 11.3 19.3 0.00 0.00 0.00 69 1012.1
20260506081604 11 55 8.0 14.5 0.00 0.00 0.00 70 1012.2
20260506081103 11 53 8.0 19.3 0.00 0.00 0.00 70 1012.3
20260506080603 11 37 8.0 12.9 0.00 0.00 0.00 72 1012.2